MFX090 UZNU-UZTT

Flight info

Callsign MFX090
Flight time N/A
Altitude 33000
Route N0450F330 DIKNA Y720 LAPZE N193 DIBAD
Aircraft A320/M-VGDW/C

Departure

Time N/A
Airport UZNU

Arrival

Time 2026-05-05 18:20
Airport Tashkent International Airport (UZTT)
Time Latitude Longitude Altitude Speed Heading
2026-05-05 17:11 41.58551 60.63468 329 ft 0 kts 321°
2026-05-05 17:18 41.58559 60.63459 325 ft 6 kts 321°
2026-05-05 17:18 41.58605 60.63502 325 ft 9 kts 57°
2026-05-05 17:18 41.58660 60.63592 327 ft 12 kts 49°
2026-05-05 17:19 41.58709 60.63668 327 ft 2 kts 50°
2026-05-05 17:19 41.58736 60.63711 324 ft 0 kts 49°
2026-05-05 17:19 41.58755 60.63742 325 ft 9 kts 55°
2026-05-05 17:19 41.58726 60.63835 327 ft 15 kts 139°
2026-05-05 17:20 41.58531 60.64053 325 ft 72 kts 139°
2026-05-05 17:20 41.57981 60.64680 324 ft 134 kts 140°
2026-05-05 17:20 41.57194 60.65592 668 ft 153 kts 138°
2026-05-05 17:20 41.56385 60.66512 1339 ft 152 kts 139°
2026-05-05 17:21 41.55571 60.67431 1880 ft 160 kts 139°
2026-05-05 17:21 41.54656 60.68465 2170 ft 184 kts 139°
2026-05-05 17:21 41.53616 60.69639 2471 ft 208 kts 140°
2026-05-05 17:22 41.51218 60.72350 3676 ft 235 kts 139°
2026-05-05 17:22 41.50184 60.74051 4460 ft 242 kts 115°
2026-05-05 17:22 41.49855 60.76303 5023 ft 261 kts 85°
2026-05-05 17:22 41.50206 60.78749 5679 ft 273 kts 79°
2026-05-05 17:23 41.50605 60.81258 6475 ft 279 kts 79°
2026-05-05 17:23 41.51002 60.83817 7258 ft 285 kts 79°
2026-05-05 17:23 41.51400 60.86425 8065 ft 290 kts 79°
2026-05-05 17:23 41.51800 60.89085 8874 ft 295 kts 79°
2026-05-05 17:24 41.52205 60.91802 9680 ft 301 kts 79°
2026-05-05 17:24 41.52618 60.94582 10261 ft 315 kts 79°
2026-05-05 17:24 41.53061 60.97560 10531 ft 339 kts 79°
2026-05-05 17:24 41.53528 61.00705 10826 ft 358 kts 79°
2026-05-05 17:25 41.54020 61.04010 11438 ft 367 kts 78°
2026-05-05 17:25 41.54357 61.06273 11931 ft 370 kts 78°
2026-05-05 17:25 41.55027 61.10774 12881 ft 376 kts 78°
2026-05-05 17:25 41.55535 61.14225 13580 ft 382 kts 78°
2026-05-05 17:26 41.56049 61.17727 14211 ft 386 kts 78°
2026-05-05 17:26 41.56571 61.21268 14858 ft 391 kts 78°
2026-05-05 17:26 41.57098 61.24842 15479 ft 395 kts 78°
2026-05-05 17:26 41.57629 61.28458 16111 ft 399 kts 78°
2026-05-05 17:27 41.58162 61.32114 16742 ft 403 kts 78°
2026-05-05 17:27 41.58700 61.35801 17358 ft 407 kts 78°
2026-05-05 17:27 41.59244 61.39541 17993 ft 411 kts 78°
2026-05-05 17:27 41.59790 61.43310 18550 ft 415 kts 78°
2026-05-05 17:28 41.60340 61.47115 19103 ft 419 kts 78°
2026-05-05 17:28 41.60893 61.50943 19651 ft 422 kts 78°
2026-05-05 17:28 41.61453 61.54813 20202 ft 426 kts 78°
2026-05-05 17:28 41.62016 61.58718 20748 ft 430 kts 78°
2026-05-05 17:29 41.62573 61.62605 21273 ft 433 kts 78°
2026-05-05 17:29 41.63145 61.66627 21809 ft 437 kts 78°
2026-05-05 17:29 41.63704 61.70585 22307 ft 441 kts 78°
2026-05-05 17:29 41.64260 61.74635 22777 ft 446 kts 81°
2026-05-05 17:30 41.64542 61.78784 23252 ft 450 kts 85°
2026-05-05 17:30 41.64762 61.82969 23689 ft 453 kts 85°
2026-05-05 17:30 41.64981 61.87186 24070 ft 457 kts 85°
2026-05-05 17:30 41.65197 61.91432 24443 ft 460 kts 85°
2026-05-05 17:31 41.65412 61.95706 24811 ft 463 kts 86°
2026-05-05 17:31 41.65629 62.00022 25171 ft 466 kts 85°
2026-05-05 17:31 41.65852 62.04366 25529 ft 469 kts 85°
2026-05-05 17:31 41.66076 62.08719 25876 ft 472 kts 85°
2026-05-05 17:32 41.66299 62.13120 26222 ft 475 kts 85°
2026-05-05 17:32 41.66516 62.17542 26566 ft 478 kts 86°
2026-05-05 17:32 41.66731 62.21992 26901 ft 481 kts 86°
2026-05-05 17:32 41.66944 62.26470 27240 ft 484 kts 86°
2026-05-05 17:33 41.67159 62.30974 27554 ft 487 kts 86°
2026-05-05 17:33 41.67377 62.35509 27872 ft 490 kts 86°
2026-05-05 17:33 41.67596 62.40070 28182 ft 492 kts 86°
2026-05-05 17:33 41.67814 62.44657 28490 ft 495 kts 85°
2026-05-05 17:34 41.68032 62.49262 28801 ft 497 kts 85°
2026-05-05 17:34 41.68247 62.53886 29088 ft 499 kts 86°
2026-05-05 17:34 41.68456 62.58533 29368 ft 502 kts 86°
2026-05-05 17:34 41.68665 62.63210 29630 ft 504 kts 86°
2026-05-05 17:35 41.68874 62.67900 29891 ft 506 kts 86°
2026-05-05 17:35 41.69085 62.72615 30119 ft 509 kts 86°
2026-05-05 17:35 41.69296 62.77344 30323 ft 510 kts 86°
2026-05-05 17:35 41.69506 62.82080 30631 ft 509 kts 86°
2026-05-05 17:36 41.69711 62.86797 30971 ft 507 kts 86°
2026-05-05 17:36 41.69914 62.91502 31279 ft 506 kts 86°
2026-05-05 17:36 41.70112 62.96138 31567 ft 505 kts 86°
2026-05-05 17:36 41.70307 63.00838 31849 ft 505 kts 85°
2026-05-05 17:37 41.70500 63.05533 32143 ft 505 kts 85°
2026-05-05 17:37 41.70629 63.08641 32334 ft 505 kts 85°
2026-05-05 17:37 41.70887 63.14908 32741 ft 504 kts 85°
2026-05-05 17:37 41.71078 63.19587 32929 ft 503 kts 85°
2026-05-05 17:38 41.71264 63.24250 32962 ft 500 kts 85°
2026-05-05 17:38 41.71630 63.33534 32961 ft 499 kts 85°
2026-05-05 17:39 41.72000 63.42795 32963 ft 498 kts 85°
2026-05-05 17:39 41.72356 63.51989 32967 ft 498 kts 85°
2026-05-05 17:40 41.72706 63.61234 32966 ft 497 kts 85°
2026-05-05 17:40 41.73041 63.70481 32966 ft 497 kts 85°
2026-05-05 17:41 41.73367 63.79722 32967 ft 497 kts 85°
2026-05-05 17:41 41.73692 63.88956 32970 ft 496 kts 85°
2026-05-05 17:42 41.74004 63.98196 32961 ft 496 kts 85°
2026-05-05 17:42 41.74303 64.07418 32976 ft 495 kts 85°
2026-05-05 17:43 41.74611 64.16638 32982 ft 495 kts 85°
2026-05-05 17:43 41.74907 64.25850 32988 ft 494 kts 85°
2026-05-05 17:44 41.75191 64.34990 32985 ft 494 kts 85°
2026-05-05 17:44 41.75466 64.44182 32993 ft 494 kts 85°
2026-05-05 17:45 41.75736 64.53367 32990 ft 493 kts 86°
2026-05-05 17:45 41.75780 64.62546 32993 ft 495 kts 94°
2026-05-05 17:46 41.74658 64.71650 32990 ft 495 kts 99°
2026-05-05 17:46 41.73467 64.80726 32978 ft 495 kts 99°
2026-05-05 17:47 41.72274 64.89809 32977 ft 495 kts 99°
2026-05-05 17:47 41.71087 64.98830 32990 ft 495 kts 99°
2026-05-05 17:48 41.69882 65.07917 32985 ft 495 kts 99°
2026-05-05 17:48 41.68660 65.16981 32985 ft 495 kts 99°
2026-05-05 17:49 41.67430 65.26044 32989 ft 495 kts 99°
2026-05-05 17:49 41.66196 65.35103 32988 ft 495 kts 99°
2026-05-05 17:50 41.64954 65.44152 32985 ft 495 kts 99°
2026-05-05 17:50 41.63711 65.53197 32986 ft 495 kts 99°
2026-05-05 17:51 41.62466 65.62248 33003 ft 495 kts 99°
2026-05-05 17:51 41.61209 65.71226 32996 ft 495 kts 99°
2026-05-05 17:52 41.59937 65.80269 32991 ft 495 kts 99°
2026-05-05 17:52 41.58661 65.89309 32995 ft 495 kts 99°
2026-05-05 17:53 41.57377 65.98344 32980 ft 495 kts 99°
2026-05-05 17:53 41.56085 66.07377 32993 ft 495 kts 99°
2026-05-05 17:54 41.54786 66.16412 32994 ft 496 kts 99°
2026-05-05 17:54 41.53480 66.25434 33012 ft 496 kts 98°
2026-05-05 17:55 41.52164 66.34474 32989 ft 496 kts 98°
2026-05-05 17:55 41.50841 66.43504 32989 ft 496 kts 99°
2026-05-05 17:56 41.49505 66.52548 33000 ft 496 kts 99°
2026-05-05 17:56 41.48183 66.61504 33009 ft 496 kts 98°
2026-05-05 17:56 41.47524 66.65974 32915 ft 485 kts 98°
2026-05-05 17:57 41.46886 66.70338 32654 ft 475 kts 98°
2026-05-05 17:57 41.46262 66.74639 32337 ft 470 kts 98°
2026-05-05 17:57 41.45644 66.78917 31721 ft 468 kts 98°
2026-05-05 17:57 41.45030 66.83163 31139 ft 466 kts 98°
2026-05-05 17:58 41.44413 66.87395 30558 ft 464 kts 98°
2026-05-05 17:58 41.44003 66.90179 30171 ft 462 kts 98°
2026-05-05 17:58 41.43384 66.94383 29554 ft 460 kts 98°
2026-05-05 17:58 41.42771 66.98541 28995 ft 455 kts 98°
2026-05-05 17:59 41.42161 67.02650 28456 ft 451 kts 98°
2026-05-05 17:59 41.41553 67.06723 27918 ft 447 kts 98°
2026-05-05 17:59 41.40954 67.10759 27405 ft 442 kts 98°
2026-05-05 17:59 41.40357 67.14763 26900 ft 438 kts 99°
2026-05-05 18:00 41.39763 67.18724 26408 ft 434 kts 99°
2026-05-05 18:00 41.39172 67.22649 25933 ft 431 kts 99°
2026-05-05 18:00 41.38583 67.26550 25410 ft 428 kts 99°
2026-05-05 18:00 41.38001 67.30425 24912 ft 426 kts 99°
2026-05-05 18:01 41.37420 67.34289 24382 ft 424 kts 100°
2026-05-05 18:01 41.36840 67.38135 23847 ft 423 kts 100°
2026-05-05 18:01 41.36258 67.41966 23268 ft 422 kts 100°
2026-05-05 18:01 41.35684 67.45717 22748 ft 418 kts 100°
2026-05-05 18:02 41.35109 67.49481 22289 ft 413 kts 100°
2026-05-05 18:02 41.34536 67.53235 21754 ft 411 kts 100°
2026-05-05 18:02 41.34102 67.56942 21543 ft 399 kts 95°
2026-05-05 18:02 41.33800 67.60550 21450 ft 385 kts 95°
2026-05-05 18:03 41.33533 67.64034 21356 ft 372 kts 94°
2026-05-05 18:03 41.33286 67.67399 21276 ft 359 kts 94°
2026-05-05 18:03 41.33050 67.70652 21197 ft 351 kts 94°
2026-05-05 18:03 41.32812 67.73884 21119 ft 352 kts 94°
2026-05-05 18:04 41.32569 67.77123 21043 ft 352 kts 94°
2026-05-05 18:04 41.32322 67.80359 20961 ft 352 kts 94°
2026-05-05 18:04 41.32070 67.83593 20618 ft 352 kts 94°
2026-05-05 18:04 41.31816 67.86833 20173 ft 352 kts 94°
2026-05-05 18:05 41.31561 67.90072 19723 ft 352 kts 94°
2026-05-05 18:05 41.31306 67.93319 19275 ft 353 kts 94°
2026-05-05 18:05 41.31049 67.96577 18824 ft 354 kts 95°
2026-05-05 18:05 41.30791 67.99825 18378 ft 355 kts 95°
2026-05-05 18:06 41.30530 68.03100 17882 ft 355 kts 95°
2026-05-05 18:06 41.30356 68.05266 17586 ft 355 kts 95°
2026-05-05 18:06 41.30006 68.09621 16996 ft 353 kts 95°
2026-05-05 18:06 41.29745 68.12866 16551 ft 352 kts 95°
2026-05-05 18:07 41.29486 68.16101 16122 ft 352 kts 95°
2026-05-05 18:07 41.29225 68.19327 15693 ft 351 kts 95°
2026-05-05 18:07 41.28964 68.22552 15262 ft 351 kts 95°
2026-05-05 18:07 41.28707 68.25724 14834 ft 350 kts 95°
2026-05-05 18:08 41.28443 68.28956 14355 ft 351 kts 95°
2026-05-05 18:08 41.28178 68.32180 13917 ft 351 kts 96°
2026-05-05 18:08 41.27911 68.35394 13458 ft 350 kts 96°
2026-05-05 18:08 41.27644 68.38611 13009 ft 348 kts 96°
2026-05-05 18:09 41.27380 68.41793 12574 ft 346 kts 96°
2026-05-05 18:09 41.27119 68.44925 12400 ft 334 kts 96°
2026-05-05 18:09 41.26868 68.47930 11966 ft 322 kts 96°
2026-05-05 18:09 41.26621 68.50861 11365 ft 316 kts 97°
2026-05-05 18:10 41.26379 68.53735 10890 ft 312 kts 97°
2026-05-05 18:10 41.26136 68.56599 10467 ft 313 kts 97°
2026-05-05 18:10 41.25894 68.59476 10089 ft 311 kts 97°
2026-05-05 18:10 41.25652 68.62333 9655 ft 309 kts 97°
2026-05-05 18:11 41.25414 68.65141 9162 ft 305 kts 97°
2026-05-05 18:11 41.25178 68.67937 8778 ft 303 kts 97°
2026-05-05 18:11 41.24943 68.70708 8356 ft 302 kts 97°
2026-05-05 18:11 41.24712 68.73455 7921 ft 297 kts 98°
2026-05-05 18:12 41.24486 68.76124 7426 ft 295 kts 98°
2026-05-05 18:12 41.24251 68.78849 7049 ft 291 kts 98°
2026-05-05 18:12 41.24020 68.81485 6689 ft 289 kts 98°
2026-05-05 18:12 41.23787 68.84119 6298 ft 286 kts 98°
2026-05-05 18:13 41.23554 68.86754 5680 ft 292 kts 98°
2026-05-05 18:13 41.23318 68.89443 5129 ft 290 kts 98°
2026-05-05 18:13 41.23091 68.92049 4661 ft 277 kts 98°
2026-05-05 18:13 41.22880 68.94475 4547 ft 251 kts 98°
2026-05-05 18:14 41.22691 68.96677 4478 ft 228 kts 98°
2026-05-05 18:14 41.22630 68.98707 4395 ft 214 kts 88°
2026-05-05 18:14 41.22781 69.00616 4333 ft 202 kts 84°
2026-05-05 18:14 41.22976 69.02396 4216 ft 186 kts 83°
2026-05-05 18:15 41.23157 69.04002 4129 ft 166 kts 83°
2026-05-05 18:15 41.23321 69.05458 4073 ft 154 kts 83°
2026-05-05 18:15 41.23475 69.06832 4024 ft 149 kts 84°
2026-05-05 18:15 41.23627 69.08187 3916 ft 148 kts 83°
2026-05-05 18:16 41.23778 69.09531 3760 ft 147 kts 83°
2026-05-05 18:16 41.23928 69.10870 3587 ft 146 kts 83°
2026-05-05 18:16 41.24076 69.12198 3408 ft 145 kts 83°
2026-05-05 18:16 41.24224 69.13522 3225 ft 144 kts 83°
2026-05-05 18:17 41.24371 69.14838 3042 ft 143 kts 83°
2026-05-05 18:17 41.24515 69.16126 2862 ft 142 kts 83°
2026-05-05 18:17 41.24661 69.17437 2675 ft 142 kts 82°
2026-05-05 18:17 41.24806 69.18731 2494 ft 141 kts 82°
2026-05-05 18:18 41.24948 69.20010 2310 ft 139 kts 81°
2026-05-05 18:18 41.25086 69.21254 2124 ft 137 kts 81°
2026-05-05 18:18 41.25224 69.22500 1954 ft 135 kts 81°
2026-05-05 18:18 41.25358 69.23740 1771 ft 135 kts 81°
2026-05-05 18:19 41.25492 69.24963 1590 ft 133 kts 81°
2026-05-05 18:19 41.25629 69.26170 1416 ft 131 kts 81°
2026-05-05 18:19 41.25752 69.27260 1381 ft 104 kts 82°
2026-05-05 18:19 41.25832 69.27984 1383 ft 56 kts 81°
2026-05-05 18:20 41.25884 69.28452 1380 ft 47 kts 82°
2026-05-05 18:20 41.25923 69.28819 1377 ft 24 kts 82°
2026-05-05 18:20 41.25985 69.28911 1377 ft 14 kts 358°
2026-05-05 18:20 41.26056 69.28838 1379 ft 12 kts 315°
2026-05-05 18:21 41.26111 69.28771 1380 ft 10 kts 317°
2026-05-05 18:21 41.26158 69.28713 1380 ft 9 kts 317°
2026-05-05 18:21 41.26183 69.28654 1378 ft 7 kts 273°
2026-05-05 18:21 41.26186 69.28589 1381 ft 9 kts 272°
2026-05-05 18:22 41.26191 69.28448 1382 ft 17 kts 272°
2026-05-05 18:22 41.26176 69.28246 1382 ft 23 kts 262°
2026-05-05 18:22 41.26148 69.27989 1380 ft 32 kts 261°
2026-05-05 18:22 41.26121 69.27753 1378 ft 22 kts 261°
2026-05-05 18:23 41.26099 69.27550 1382 ft 23 kts 261°
2026-05-05 18:23 41.26082 69.27402 1382 ft 13 kts 261°
2026-05-05 18:23 41.26068 69.27285 1382 ft 12 kts 259°
2026-05-05 18:23 41.26100 69.27200 1380 ft 10 kts 319°
2026-05-05 18:24 41.26149 69.27141 1379 ft 9 kts 318°
2026-05-05 18:24 41.26193 69.27090 1379 ft 8 kts 318°
2026-05-05 18:24 41.26230 69.27097 1382 ft 5 kts 55°
2026-05-05 18:24 41.26238 69.27144 1382 ft 7 kts 78°
2026-05-05 18:25 41.26258 69.27217 1379 ft 9 kts 38°
2026-05-05 18:25 41.26297 69.27218 1380 ft 0 kts 352°
2026-05-05 18:25 41.26304 69.27217 1379 ft 0 kts 351°
2026-05-05 18:25 41.26306 69.27216 1379 ft 0 kts 351°